owner,sensor,date,latitude,longitude,vertical_datum,sea_water_practical_salinity,qcFlag 
NERRS,ioos:station:NOAA.NERRS:gndbcwq:1,2015-01-02T10:00:00Z,30.3836,-88.4364,0.31,18.5,1111122 
NERRS,ioos:station:NOAA.NERRS:gndbcwq:1,2015-01-03T16:00:00Z,30.3836,-88.4364,0.44,19.8,1111122 
NERRS,ioos:station:NOAA.NERRS:gndbcwq:1,2015-01-03T17:00:00Z,30.3836,-88.4364,0.48,20.3,1111122 
NERRS,ioos:station:NOAA.NERRS:gndbcwq:1,2015-01-03T19:00:00Z,30.3836,-88.4364,0.58,21.4,1111122 
NERRS,ioos:station:NOAA.NERRS:gndbcwq:1,2015-01-03T20:00:00Z,30.3836,-88.4364,0.63,21.9,1111122 
NERRS,ioos:station:NOAA.NERRS:gndbcwq:1,2015-01-03T21:00:00Z,30.3836,-88.4364,0.69,22.9,1111122 
NERRS,ioos:station:NOAA.NERRS:gndbcwq:1,2015-01-03T22:00:00Z,30.3836,-88.4364,0.75,23.8,1111122 
NERRS,ioos:station:NOAA.NERRS:gndbcwq:1,2015-01-03T23:00:00Z,30.3836,-88.4364,0.79,24.5,1111122 
NERRS,ioos:station:NOAA.NERRS:gndbcwq:1,2015-01-04T00:00:00Z,30.3836,-88.4364,0.84,25.1,1111122 
NERRS,ioos:station:NOAA.NERRS:gndbcwq:1,2015-01-04T01:00:00Z,30.3836,-88.4364,0.89,25.0,1111122 
NERRS,ioos:station:NOAA.NERRS:gndbcwq:1,2015-01-04T02:00:00Z,30.3836,-88.4364,0.94,24.9,1111122 
NERRS,ioos:station:NOAA.NERRS:gndbcwq:1,2015-01-04T03:00:00Z,30.3836,-88.4364,0.95,24.8,1111122 
NERRS,ioos:station:NOAA.NERRS:gndbcwq:1,2015-01-04T04:00:00Z,30.3836,-88.4364,0.92,24.8,1111122 
NERRS,ioos:station:NOAA.NERRS:gndbcwq:1,2015-01-04T05:00:00Z,30.3836,-88.4364,0.87,24.8,1111122 
NERRS,ioos:station:NOAA.NERRS:gndbcwq:1,2015-01-04T07:00:00Z,30.3836,-88.4364,0.74,24.6,1111122 
NERRS,ioos:station:NOAA.NERRS:gndbcwq:1,2015-01-04T08:00:00Z,30.3836,-88.4364,0.68,23.9,1111122 
NERRS,ioos:station:NOAA.NERRS:gndbcwq:1,2015-01-04T08:30:00Z,30.3836,-88.4364,0.64,23.5,1111122 
NERRS,ioos:station:NOAA.NERRS:gndbcwq:1,2015-01-04T16:00:00Z,30.3836,-88.4364,0.26,16.0,1111122 
NERRS,ioos:station:NOAA.NERRS:gndbcwq:1,2015-01-04T17:00:00Z,30.3836,-88.4364,0.34,16.8,1111122 
NERRS,ioos:station:NOAA.NERRS:gndbcwq:1,2015-01-04T18:00:00Z,30.3836,-88.4364,0.33,16.7,1111122 
NERRS,ioos:station:NOAA.NERRS:gndbcwq:1,2015-01-04T19:00:00Z,30.3836,-88.4364,0.35,16.1,1111122 
NERRS,ioos:station:NOAA.NERRS:gndbcwq:1,2015-01-04T20:00:00Z,30.3836,-88.4364,0.4,16.8,1111122 
NERRS,ioos:station:NOAA.NERRS:gndbcwq:1,2015-01-04T21:00:00Z,30.3836,-88.4364,0.48,17.6,1111122 
NERRS,ioos:station:NOAA.NERRS:gndbcwq:1,2015-01-04T22:00:00Z,30.3836,-88.4364,0.55,18.5,1111122 
NERRS,ioos:station:NOAA.NERRS:gndbcwq:1,2015-01-04T23:00:00Z,30.3836,-88.4364,0.62,19.5,1111122 
NERRS,ioos:station:NOAA.NERRS:gndbcwq:1,2015-01-05T00:00:00Z,30.3836,-88.4364,0.63,17.6,1111122 
NERRS,ioos:station:NOAA.NERRS:gndbcwq:1,2015-01-05T01:00:00Z,30.3836,-88.4364,0.66,19.7,1111122 
NERRS,ioos:station:NOAA.NERRS:gndbcwq:1,2015-01-05T02:00:00Z,30.3836,-88.4364,0.7,19.5,1111122 
NERRS,ioos:station:NOAA.NERRS:gndbcwq:1,2015-01-05T03:00:00Z,30.3836,-88.4364,0.71,19.0,1111122 
NERRS,ioos:station:NOAA.NERRS:gndbcwq:1,2015-01-05T04:00:00Z,30.3836,-88.4364,0.61,16.6,1111122 
NERRS,ioos:station:NOAA.NERRS:gndbcwq:1,2015-01-05T05:00:00Z,30.3836,-88.4364,0.55,17.0,1111122 
NERRS,ioos:station:NOAA.NERRS:gndbcwq:1,2015-01-05T06:30:00Z,30.3836,-88.4364,0.41,15.4,1111122 
NERRS,ioos:station:NOAA.NERRS:gndbcwq:1,2015-01-05T15:00:00Z,30.3836,-88.4364,0.24,14.1,1111122 
NERRS,ioos:station:NOAA.NERRS:gndbcwq:1,2015-01-05T16:00:00Z,30.3836,-88.4364,0.24,13.4,1111122 
NERRS,ioos:station:NOAA.NERRS:gndbcwq:1,2015-01-05T17:00:00Z,30.3836,-88.4364,0.24,13.9,1111122 
NERRS,ioos:station:NOAA.NERRS:gndbcwq:1,2015-01-05T18:00:00Z,30.3836,-88.4364,0.3,15.0,1111122 
NERRS,ioos:station:NOAA.NERRS:gndbcwq:1,2015-01-05T19:00:00Z,30.3836,-88.4364,0.34,15.9,1111122 
NERRS,ioos:station:NOAA.NERRS:gndbcwq:1,2015-01-05T20:00:00Z,30.3836,-88.4364,0.42,17.2,1111122 
NERRS,ioos:station:NOAA.NERRS:gndbcwq:1,2015-01-05T21:00:00Z,30.3836,-88.4364,0.5,17.7,1111122 
NERRS,ioos:station:NOAA.NERRS:gndbcwq:1,2015-01-05T22:00:00Z,30.3836,-88.4364,0.56,18.2,1111122 
NERRS,ioos:station:NOAA.NERRS:gndbcwq:1,2015-01-05T23:00:00Z,30.3836,-88.4364,0.58,18.9,1111122 
NERRS,ioos:station:NOAA.NERRS:gndbcwq:1,2015-01-06T00:00:00Z,30.3836,-88.4364,0.6,18.5,1111122 
NERRS,ioos:station:NOAA.NERRS:gndbcwq:1,2015-01-06T01:00:00Z,30.3836,-88.4364,0.64,19.2,1111122 
NERRS,ioos:station:NOAA.NERRS:gndbcwq:1,2015-01-06T02:00:00Z,30.3836,-88.4364,0.69,20.7,1111122 
NERRS,ioos:station:NOAA.NERRS:gndbcwq:1,2015-01-06T03:00:00Z,30.3836,-88.4364,0.72,21.4,1111122 
NERRS,ioos:station:NOAA.NERRS:gndbcwq:1,2015-01-06T04:00:00Z,30.3836,-88.4364,0.72,21.3,1111122 
NERRS,ioos:station:NOAA.NERRS:gndbcwq:1,2015-01-06T05:00:00Z,30.3836,-88.4364,0.68,18.4,1111122 
NERRS,ioos:station:NOAA.NERRS:gndbcwq:1,2015-01-06T06:00:00Z,30.3836,-88.4364,0.6,16.6,1111122 
NERRS,ioos:station:NOAA.NERRS:gndbcwq:1,2015-01-06T07:00:00Z,30.3836,-88.4364,0.55,17.5,1111122 
NERRS,ioos:station:NOAA.NERRS:gndbcwq:1,2015-01-06T08:00:00Z,30.3836,-88.4364,0.5,15.7,1111122 
NERRS,ioos:station:NOAA.NERRS:gndbcwq:1,2015-01-06T09:00:00Z,30.3836,-88.4364,0.42,14.8,1111122 
NERRS,ioos:station:NOAA.NERRS:gndbcwq:1,2015-01-06T10:00:00Z,30.3836,-88.4364,0.32,13.9,1111122 
NERRS,ioos:station:NOAA.NERRS:gndbcwq:1,2015-01-06T11:00:00Z,30.3836,-88.4364,0.22,13.3,1111122 
NERRS,ioos:station:NOAA.NERRS:gndbcwq:1,2015-01-06T12:00:00Z,30.3836,-88.4364,0.19,12.6,1111122 
NERRS,ioos:station:NOAA.NERRS:gndbcwq:1,2015-01-06T13:00:00Z,30.3836,-88.4364,0.21,6.0,1111122 
NERRS,ioos:station:NOAA.NERRS:gndbcwq:1,2015-01-06T14:00:00Z,30.3836,-88.4364,0.21,5.9,1111122 
NERRS,ioos:station:NOAA.NERRS:gndbcwq:1,2015-01-06T15:00:00Z,30.3836,-88.4364,0.21,13.1,1111122 
NERRS,ioos:station:NOAA.NERRS:gndbcwq:1,2015-01-06T16:00:00Z,30.3836,-88.4364,0.2,13.0,1111122 
NERRS,ioos:station:NOAA.NERRS:gndbcwq:1,2015-01-06T17:00:00Z,30.3836,-88.4364,0.19,13.0,1111122 
NERRS,ioos:station:NOAA.NERRS:gndbcwq:1,2015-01-06T18:00:00Z,30.3836,-88.4364,0.17,12.6,1111122 
NERRS,ioos:station:NOAA.NERRS:gndbcwq:1,2015-01-06T19:00:00Z,30.3836,-88.4364,0.24,13.3,1111122 
NERRS,ioos:station:NOAA.NERRS:gndbcwq:1,2015-01-06T20:00:00Z,30.3836,-88.4364,0.31,15.9,1111122 
NERRS,ioos:station:NOAA.NERRS:gndbcwq:1,2015-01-06T21:00:00Z,30.3836,-88.4364,0.37,19.6,1111122 
NERRS,ioos:station:NOAA.NERRS:gndbcwq:1,2015-01-06T22:00:00Z,30.3836,-88.4364,0.39,18.4,1111122 
NERRS,ioos:station:NOAA.NERRS:gndbcwq:1,2015-01-06T23:00:00Z,30.3836,-88.4364,0.41,18.0,1111122 
NERRS,ioos:station:NOAA.NERRS:gndbcwq:1,2015-01-07T00:00:00Z,30.3836,-88.4364,0.45,18.7,1111122 
NERRS,ioos:station:NOAA.NERRS:gndbcwq:1,2015-01-07T01:00:00Z,30.3836,-88.4364,0.53,20.3,1111122 
NERRS,ioos:station:NOAA.NERRS:gndbcwq:1,2015-01-07T03:00:00Z,30.3836,-88.4364,0.67,23.4,1111122 
NERRS,ioos:station:NOAA.NERRS:gndbcwq:1,2015-01-07T04:00:00Z,30.3836,-88.4364,0.69,23.7,1111122 
NERRS,ioos:station:NOAA.NERRS:gndbcwq:1,2015-01-07T05:00:00Z,30.3836,-88.4364,0.64,18.6,1111122 
NERRS,ioos:station:NOAA.NERRS:gndbcwq:1,2015-01-07T06:00:00Z,30.3836,-88.4364,0.58,21.3,1111122 
NERRS,ioos:station:NOAA.NERRS:gndbcwq:1,2015-01-07T07:00:00Z,30.3836,-88.4364,0.56,19.9,1111122 
NERRS,ioos:station:NOAA.NERRS:gndbcwq:1,2015-01-07T08:00:00Z,30.3836,-88.4364,0.52,17.9,1111122 
NERRS,ioos:station:NOAA.NERRS:gndbcwq:1,2015-01-07T09:00:00Z,30.3836,-88.4364,0.47,19.1,1111122 
NERRS,ioos:station:NOAA.NERRS:gndbcwq:1,2015-01-07T10:00:00Z,30.3836,-88.4364,0.38,14.5,1111122 
NERRS,ioos:station:NOAA.NERRS:gndbcwq:1,2015-01-07T11:00:00Z,30.3836,-88.4364,0.27,14.3,1111122 
NERRS,ioos:station:NOAA.NERRS:gndbcwq:1,2015-01-07T12:00:00Z,30.3836,-88.4364,0.2,13.7,1111122 
NERRS,ioos:station:NOAA.NERRS:gndbcwq:1,2015-01-07T13:00:00Z,30.3836,-88.4364,0.16,12.8,1111122 
NERRS,ioos:station:NOAA.NERRS:gndbcwq:1,2015-01-07T14:00:00Z,30.3836,-88.4364,0.17,11.9,1111122 
NERRS,ioos:station:NOAA.NERRS:gndbcwq:1,2015-01-07T15:00:00Z,30.3836,-88.4364,0.22,15.6,1111122 
NERRS,ioos:station:NOAA.NERRS:gndbcwq:1,2015-01-07T16:00:00Z,30.3836,-88.4364,0.24,13.7,1111122 
NERRS,ioos:station:NOAA.NERRS:gndbcwq:1,2015-01-07T17:00:00Z,30.3836,-88.4364,0.22,13.3,1111122 
NERRS,ioos:station:NOAA.NERRS:gndbcwq:1,2015-01-07T18:00:00Z,30.3836,-88.4364,0.2,14.7,1111122 
NERRS,ioos:station:NOAA.NERRS:gndbcwq:1,2015-01-07T19:00:00Z,30.3836,-88.4364,0.16,14.1,1111122 
NERRS,ioos:station:NOAA.NERRS:gndbcwq:1,2015-01-07T20:00:00Z,30.3836,-88.4364,0.17,14.7,1111122 
NERRS,ioos:station:NOAA.NERRS:gndbcwq:1,2015-01-07T21:00:00Z,30.3836,-88.4364,0.22,17.3,1111122 
NERRS,ioos:station:NOAA.NERRS:gndbcwq:1,2015-01-07T22:00:00Z,30.3836,-88.4364,0.27,18.0,1111122 
NERRS,ioos:station:NOAA.NERRS:gndbcwq:1,2015-01-07T23:00:00Z,30.3836,-88.4364,0.22,16.2,1111122 
NERRS,ioos:station:NOAA.NERRS:gndbcwq:1,2015-01-08T00:00:00Z,30.3836,-88.4364,0.2,15.4,1111122 
NERRS,ioos:station:NOAA.NERRS:gndbcwq:1,2015-01-08T01:00:00Z,30.3836,-88.4364,0.22,15.2,1111122 
NERRS,ioos:station:NOAA.NERRS:gndbcwq:1,2015-01-08T02:00:00Z,30.3836,-88.4364,0.23,15.8,1111122 
NERRS,ioos:station:NOAA.NERRS:gndbcwq:1,2015-01-08T03:00:00Z,30.3836,-88.4364,0.24,16.4,1111122 
NERRS,ioos:station:NOAA.NERRS:gndbcwq:1,2015-01-08T04:00:00Z,30.3836,-88.4364,0.24,17.7,1111122 
NERRS,ioos:station:NOAA.NERRS:gndbcwq:1,2015-01-08T05:00:00Z,30.3836,-88.4364,0.25,17.5,1111122 
NERRS,ioos:station:NOAA.NERRS:gndbcwq:1,2015-01-08T07:00:00Z,30.3836,-88.4364,0.28,17.7,1111122 
NERRS,ioos:station:NOAA.NERRS:gndbcwq:1,2015-01-08T08:00:00Z,30.3836,-88.4364,0.3,17.8,1111122 
NERRS,ioos:station:NOAA.NERRS:gndbcwq:1,2015-01-08T09:00:00Z,30.3836,-88.4364,0.34,18.0,1111122 
NERRS,ioos:station:NOAA.NERRS:gndbcwq:1,2015-01-08T10:00:00Z,30.3836,-88.4364,0.31,18.2,1111122 
NERRS,ioos:station:NOAA.NERRS:gndbcwq:1,2015-01-08T11:00:00Z,30.3836,-88.4364,0.26,18.1,1111122 
NERRS,ioos:station:NOAA.NERRS:gndbcwq:1,2015-01-08T12:00:00Z,30.3836,-88.4364,0.26,15.8,1111122 
NERRS,ioos:station:NOAA.NERRS:gndbcwq:1,2015-01-08T13:00:00Z,30.3836,-88.4364,0.27,4.6,1111122 
NERRS,ioos:station:NOAA.NERRS:gndbcwq:1,2015-01-08T14:00:00Z,30.3836,-88.4364,0.27,4.3,1111122 
NERRS,ioos:station:NOAA.NERRS:gndbcwq:1,2015-01-08T15:00:00Z,30.3836,-88.4364,0.26,16.6,1111122 
NERRS,ioos:station:NOAA.NERRS:gndbcwq:1,2015-01-08T16:00:00Z,30.3836,-88.4364,0.26,16.9,1111122 
NERRS,ioos:station:NOAA.NERRS:gndbcwq:1,2015-01-08T17:00:00Z,30.3836,-88.4364,0.32,18.2,1111122 
NERRS,ioos:station:NOAA.NERRS:gndbcwq:1,2015-01-08T18:00:00Z,30.3836,-88.4364,0.34,18.7,1111122 
NERRS,ioos:station:NOAA.NERRS:gndbcwq:1,2015-01-08T19:00:00Z,30.3836,-88.4364,0.36,18.7,1111122 
NERRS,ioos:station:NOAA.NERRS:gndbcwq:1,2015-01-08T20:00:00Z,30.3836,-88.4364,0.37,18.9,1111122 
NERRS,ioos:station:NOAA.NERRS:gndbcwq:1,2015-01-08T21:00:00Z,30.3836,-88.4364,0.39,19.2,1111122 
NERRS,ioos:station:NOAA.NERRS:gndbcwq:1,2015-01-08T22:00:00Z,30.3836,-88.4364,0.41,19.4,1111122 
NERRS,ioos:station:NOAA.NERRS:gndbcwq:1,2015-01-08T23:00:00Z,30.3836,-88.4364,0.39,19.4,1111122 
NERRS,ioos:station:NOAA.NERRS:gndbcwq:1,2015-01-09T00:00:00Z,30.3836,-88.4364,0.36,18.6,1111122 
NERRS,ioos:station:NOAA.NERRS:gndbcwq:1,2015-01-09T01:00:00Z,30.3836,-88.4364,0.4,20.1,1111122 
NERRS,ioos:station:NOAA.NERRS:gndbcwq:1,2015-01-09T02:00:00Z,30.3836,-88.4364,0.48,20.2,1111122 
NERRS,ioos:station:NOAA.NERRS:gndbcwq:1,2015-01-09T03:00:00Z,30.3836,-88.4364,0.6,22.4,1111122 
NERRS,ioos:station:NOAA.NERRS:gndbcwq:1,2015-01-09T04:00:00Z,30.3836,-88.4364,0.67,23.1,1111122 
NERRS,ioos:station:NOAA.NERRS:gndbcwq:1,2015-01-09T05:00:00Z,30.3836,-88.4364,0.66,23.7,1111122 
NERRS,ioos:station:NOAA.NERRS:gndbcwq:1,2015-01-09T07:00:00Z,30.3836,-88.4364,0.52,20.9,1111122 
NERRS,ioos:station:NOAA.NERRS:gndbcwq:1,2015-01-09T08:00:00Z,30.3836,-88.4364,0.47,19.4,1111122 
NERRS,ioos:station:NOAA.NERRS:gndbcwq:1,2015-01-09T09:00:00Z,30.3836,-88.4364,0.46,20.2,1111122 
NERRS,ioos:station:NOAA.NERRS:gndbcwq:1,2015-01-09T10:00:00Z,30.3836,-88.4364,0.4,17.8,1111122 
NERRS,ioos:station:NOAA.NERRS:gndbcwq:1,2015-01-09T11:00:00Z,30.3836,-88.4364,0.3,17.1,1111122 
NERRS,ioos:station:NOAA.NERRS:gndbcwq:1,2015-01-09T12:00:00Z,30.3836,-88.4364,0.24,16.2,1111122 
NERRS,ioos:station:NOAA.NERRS:gndbcwq:1,2015-01-09T13:00:00Z,30.3836,-88.4364,0.2,15.4,1111122 
NERRS,ioos:station:NOAA.NERRS:gndbcwq:1,2015-01-09T14:00:00Z,30.3836,-88.4364,0.21,15.3,1111122 
NERRS,ioos:station:NOAA.NERRS:gndbcwq:1,2015-01-09T15:00:00Z,30.3836,-88.4364,0.23,16.5,1111122 
NERRS,ioos:station:NOAA.NERRS:gndbcwq:1,2015-01-09T16:00:00Z,30.3836,-88.4364,0.27,17.3,1111122 
NERRS,ioos:station:NOAA.NERRS:gndbcwq:1,2015-01-09T17:00:00Z,30.3836,-88.4364,0.3,18.7,1111122 
NERRS,ioos:station:NOAA.NERRS:gndbcwq:1,2015-01-09T18:00:00Z,30.3836,-88.4364,0.3,18.6,1111122 
NERRS,ioos:station:NOAA.NERRS:gndbcwq:1,2015-01-09T19:00:00Z,30.3836,-88.4364,0.26,16.1,1111122 
NERRS,ioos:station:NOAA.NERRS:gndbcwq:1,2015-01-09T20:00:00Z,30.3836,-88.4364,0.32,19.0,1111122 
NERRS,ioos:station:NOAA.NERRS:gndbcwq:1,2015-01-09T21:00:00Z,30.3836,-88.4364,0.4,21.6,1111122 
NERRS,ioos:station:NOAA.NERRS:gndbcwq:1,2015-01-09T22:00:00Z,30.3836,-88.4364,0.43,20.6,1111122 
NERRS,ioos:station:NOAA.NERRS:gndbcwq:1,2015-01-09T23:00:00Z,30.3836,-88.4364,0.45,20.4,1111122 
NERRS,ioos:station:NOAA.NERRS:gndbcwq:1,2015-01-10T00:00:00Z,30.3836,-88.4364,0.42,16.3,1111122 
NERRS,ioos:station:NOAA.NERRS:gndbcwq:1,2015-01-10T01:00:00Z,30.3836,-88.4364,0.39,16.4,1111122 
NERRS,ioos:station:NOAA.NERRS:gndbcwq:1,2015-01-10T02:00:00Z,30.3836,-88.4364,0.39,23.6,1111122 
NERRS,ioos:station:NOAA.NERRS:gndbcwq:1,2015-01-10T03:00:00Z,30.3836,-88.4364,0.43,21.4,1111122 
NERRS,ioos:station:NOAA.NERRS:gndbcwq:1,2015-01-10T04:00:00Z,30.3836,-88.4364,0.49,20.3,1111122 
NERRS,ioos:station:NOAA.NERRS:gndbcwq:1,2015-01-10T04:45:00Z,30.3836,-88.4364,0.5,21.4,1111122 
NERRS,ioos:station:NOAA.NERRS:gndbcwq:1,2015-01-10T15:00:00Z,30.3836,-88.4364,0.33,23.0,1111122 
NERRS,ioos:station:NOAA.NERRS:gndbcwq:1,2015-01-10T16:00:00Z,30.3836,-88.4364,0.4,21.0,1111122 
NERRS,ioos:station:NOAA.NERRS:gndbcwq:1,2015-01-10T17:00:00Z,30.3836,-88.4364,0.43,22.2,1111122 
NERRS,ioos:station:NOAA.NERRS:gndbcwq:1,2015-01-10T18:00:00Z,30.3836,-88.4364,0.44,22.9,1111122 
NERRS,ioos:station:NOAA.NERRS:gndbcwq:1,2015-01-10T19:00:00Z,30.3836,-88.4364,0.45,21.7,1111122 
NERRS,ioos:station:NOAA.NERRS:gndbcwq:1,2015-01-10T20:00:00Z,30.3836,-88.4364,0.47,21.9,1111122 
NERRS,ioos:station:NOAA.NERRS:gndbcwq:1,2015-01-10T21:00:00Z,30.3836,-88.4364,0.52,21.8,1111122 
NERRS,ioos:station:NOAA.NERRS:gndbcwq:1,2015-01-10T22:00:00Z,30.3836,-88.4364,0.55,22.5,1111122 
NERRS,ioos:station:NOAA.NERRS:gndbcwq:1,2015-01-10T23:00:00Z,30.3836,-88.4364,0.51,21.9,1111122 
NERRS,ioos:station:NOAA.NERRS:gndbcwq:1,2015-01-11T00:00:00Z,30.3836,-88.4364,0.48,21.6,1111122 
NERRS,ioos:station:NOAA.NERRS:gndbcwq:1,2015-01-11T01:00:00Z,30.3836,-88.4364,0.5,22.2,1111122 
NERRS,ioos:station:NOAA.NERRS:gndbcwq:1,2015-01-11T02:00:00Z,30.3836,-88.4364,0.54,22.8,1111122 
NERRS,ioos:station:NOAA.NERRS:gndbcwq:1,2015-01-11T03:00:00Z,30.3836,-88.4364,0.54,22.3,1111122 
NERRS,ioos:station:NOAA.NERRS:gndbcwq:1,2015-01-11T04:00:00Z,30.3836,-88.4364,0.53,23.2,1111122 
NERRS,ioos:station:NOAA.NERRS:gndbcwq:1,2015-01-11T05:00:00Z,30.3836,-88.4364,0.52,21.9,1111122 
NERRS,ioos:station:NOAA.NERRS:gndbcwq:1,2015-01-11T06:00:00Z,30.3836,-88.4364,0.52,23.0,1111122 
NERRS,ioos:station:NOAA.NERRS:gndbcwq:1,2015-01-11T07:00:00Z,30.3836,-88.4364,0.48,21.2,1111122 
NERRS,ioos:station:NOAA.NERRS:gndbcwq:1,2015-01-11T08:00:00Z,30.3836,-88.4364,0.48,24.0,1111122 
NERRS,ioos:station:NOAA.NERRS:gndbcwq:1,2015-01-11T09:00:00Z,30.3836,-88.4364,0.48,24.4,1111122 
NERRS,ioos:station:NOAA.NERRS:gndbcwq:1,2015-01-11T10:00:00Z,30.3836,-88.4364,0.45,22.5,1111122 
NERRS,ioos:station:NOAA.NERRS:gndbcwq:1,2015-01-11T11:00:00Z,30.3836,-88.4364,0.41,21.9,1111122 
NERRS,ioos:station:NOAA.NERRS:gndbcwq:1,2015-01-11T12:00:00Z,30.3836,-88.4364,0.4,21.8,1111122 
NERRS,ioos:station:NOAA.NERRS:gndbcwq:1,2015-01-11T13:00:00Z,30.3836,-88.4364,0.39,22.7,1111122 
NERRS,ioos:station:NOAA.NERRS:gndbcwq:1,2015-01-11T14:00:00Z,30.3836,-88.4364,0.39,22.7,1111122 
NERRS,ioos:station:NOAA.NERRS:gndbcwq:1,2015-01-11T15:00:00Z,30.3836,-88.4364,0.41,23.3,1111122 
NERRS,ioos:station:NOAA.NERRS:gndbcwq:1,2015-01-11T16:00:00Z,30.3836,-88.4364,0.42,24.4,1111122 
NERRS,ioos:station:NOAA.NERRS:gndbcwq:1,2015-01-11T17:00:00Z,30.3836,-88.4364,0.45,23.2,1111122 
NERRS,ioos:station:NOAA.NERRS:gndbcwq:1,2015-01-11T18:00:00Z,30.3836,-88.4364,0.47,24.1,1111122 
NERRS,ioos:station:NOAA.NERRS:gndbcwq:1,2015-01-11T19:00:00Z,30.3836,-88.4364,0.53,24.3,1111122 
NERRS,ioos:station:NOAA.NERRS:gndbcwq:1,2015-01-11T20:00:00Z,30.3836,-88.4364,0.53,23.7,1111122 
NERRS,ioos:station:NOAA.NERRS:gndbcwq:1,2015-01-11T21:00:00Z,30.3836,-88.4364,0.57,23.8,1111122 
NERRS,ioos:station:NOAA.NERRS:gndbcwq:1,2015-01-11T22:00:00Z,30.3836,-88.4364,0.6,24.5,1111122 
NERRS,ioos:station:NOAA.NERRS:gndbcwq:1,2015-01-11T23:00:00Z,30.3836,-88.4364,0.61,24.8,1111122 
NERRS,ioos:station:NOAA.NERRS:gndbcwq:1,2015-01-12T00:00:00Z,30.3836,-88.4364,0.61,25.2,1111122 
NERRS,ioos:station:NOAA.NERRS:gndbcwq:1,2015-01-12T01:00:00Z,30.3836,-88.4364,0.62,24.2,1111122 
NERRS,ioos:station:NOAA.NERRS:gndbcwq:1,2015-01-12T02:00:00Z,30.3836,-88.4364,0.65,24.3,1111122 
NERRS,ioos:station:NOAA.NERRS:gndbcwq:1,2015-01-12T03:00:00Z,30.3836,-88.4364,0.65,24.0,1111122 
NERRS,ioos:station:NOAA.NERRS:gndbcwq:1,2015-01-12T04:00:00Z,30.3836,-88.4364,0.65,25.0,1111122 
NERRS,ioos:station:NOAA.NERRS:gndbcwq:1,2015-01-12T04:45:00Z,30.3836,-88.4364,0.63,24.2,1111122 
NERRS,ioos:station:NOAA.NERRS:gndbcwq:1,2015-01-12T15:00:00Z,30.3836,-88.4364,0.42,22.7,1111122 
NERRS,ioos:station:NOAA.NERRS:gndbcwq:1,2015-01-12T16:00:00Z,30.3836,-88.4364,0.46,23.7,1111122 
NERRS,ioos:station:NOAA.NERRS:gndbcwq:1,2015-01-12T17:00:00Z,30.3836,-88.4364,0.5,22.4,1111122 
NERRS,ioos:station:NOAA.NERRS:gndbcwq:1,2015-01-12T18:00:00Z,30.3836,-88.4364,0.51,23.3,1111122 
NERRS,ioos:station:NOAA.NERRS:gndbcwq:1,2015-01-12T19:00:00Z,30.3836,-88.4364,0.49,21.9,1111122 
NERRS,ioos:station:NOAA.NERRS:gndbcwq:1,2015-01-12T20:00:00Z,30.3836,-88.4364,0.5,23.3,1111122 
NERRS,ioos:station:NOAA.NERRS:gndbcwq:1,2015-01-12T21:00:00Z,30.3836,-88.4364,0.54,23.5,1111122 
NERRS,ioos:station:NOAA.NERRS:gndbcwq:1,2015-01-12T22:00:00Z,30.3836,-88.4364,0.58,23.5,1111122 
NERRS,ioos:station:NOAA.NERRS:gndbcwq:1,2015-01-12T23:00:00Z,30.3836,-88.4364,0.6,23.8,1111122 
NERRS,ioos:station:NOAA.NERRS:gndbcwq:1,2015-01-13T00:00:00Z,30.3836,-88.4364,0.57,22.3,1111122 
NERRS,ioos:station:NOAA.NERRS:gndbcwq:1,2015-01-13T01:00:00Z,30.3836,-88.4364,0.52,22.1,1111122 
NERRS,ioos:station:NOAA.NERRS:gndbcwq:1,2015-01-13T02:00:00Z,30.3836,-88.4364,0.53,23.5,1111122 
NERRS,ioos:station:NOAA.NERRS:gndbcwq:1,2015-01-13T03:00:00Z,30.3836,-88.4364,0.53,23.0,1111122 
NERRS,ioos:station:NOAA.NERRS:gndbcwq:1,2015-01-13T04:00:00Z,30.3836,-88.4364,0.51,23.3,1111122 
NERRS,ioos:station:NOAA.NERRS:gndbcwq:1,2015-01-13T05:00:00Z,30.3836,-88.4364,0.46,22.1,1111122 
NERRS,ioos:station:NOAA.NERRS:gndbcwq:1,2015-01-13T06:00:00Z,30.3836,-88.4364,0.41,21.8,1111122 
NERRS,ioos:station:NOAA.NERRS:gndbcwq:1,2015-01-13T07:00:00Z,30.3836,-88.4364,0.35,21.9,1111122 
NERRS,ioos:station:NOAA.NERRS:gndbcwq:1,2015-01-13T08:00:00Z,30.3836,-88.4364,0.32,20.5,1111122 
NERRS,ioos:station:NOAA.NERRS:gndbcwq:1,2015-01-13T09:00:00Z,30.3836,-88.4364,0.33,21.1,1111122 
NERRS,ioos:station:NOAA.NERRS:gndbcwq:1,2015-01-13T10:00:00Z,30.3836,-88.4364,0.32,20.9,1111122 
NERRS,ioos:station:NOAA.NERRS:gndbcwq:1,2015-01-13T11:00:00Z,30.3836,-88.4364,0.3,19.3,1111122 
NERRS,ioos:station:NOAA.NERRS:gndbcwq:1,2015-01-13T12:00:00Z,30.3836,-88.4364,0.35,21.2,1111122 
NERRS,ioos:station:NOAA.NERRS:gndbcwq:1,2015-01-13T13:00:00Z,30.3836,-88.4364,0.37,21.4,1111122 
NERRS,ioos:station:NOAA.NERRS:gndbcwq:1,2015-01-13T14:00:00Z,30.3836,-88.4364,0.36,21.8,1111122 
NERRS,ioos:station:NOAA.NERRS:gndbcwq:1,2015-01-13T15:00:00Z,30.3836,-88.4364,0.38,21.2,1111122 
NERRS,ioos:station:NOAA.NERRS:gndbcwq:1,2015-01-13T16:00:00Z,30.3836,-88.4364,0.44,21.7,1111122 
NERRS,ioos:station:NOAA.NERRS:gndbcwq:1,2015-01-13T17:00:00Z,30.3836,-88.4364,0.47,21.8,1111122 
NERRS,ioos:station:NOAA.NERRS:gndbcwq:1,2015-01-13T18:00:00Z,30.3836,-88.4364,0.47,21.9,1111122 
NERRS,ioos:station:NOAA.NERRS:gndbcwq:1,2015-01-13T19:00:00Z,30.3836,-88.4364,0.49,21.9,1111122 
NERRS,ioos:station:NOAA.NERRS:gndbcwq:1,2015-01-13T20:00:00Z,30.3836,-88.4364,0.5,22.0,1111122 
NERRS,ioos:station:NOAA.NERRS:gndbcwq:1,2015-01-13T21:00:00Z,30.3836,-88.4364,0.52,21.8,1111122 
NERRS,ioos:station:NOAA.NERRS:gndbcwq:1,2015-01-13T22:00:00Z,30.3836,-88.4364,0.56,22.4,1111122 
NERRS,ioos:station:NOAA.NERRS:gndbcwq:1,2015-01-13T23:00:00Z,30.3836,-88.4364,0.56,22.0,1111122 
NERRS,ioos:station:NOAA.NERRS:gndbcwq:1,2015-01-14T00:00:00Z,30.3836,-88.4364,0.55,22.7,1111122 
NERRS,ioos:station:NOAA.NERRS:gndbcwq:1,2015-01-14T01:00:00Z,30.3836,-88.4364,0.53,22.0,1111122 
NERRS,ioos:station:NOAA.NERRS:gndbcwq:1,2015-01-14T02:00:00Z,30.3836,-88.4364,0.52,21.6,1111122 
NERRS,ioos:station:NOAA.NERRS:gndbcwq:1,2015-01-14T03:00:00Z,30.3836,-88.4364,0.44,20.4,1111122 
NERRS,ioos:station:NOAA.NERRS:gndbcwq:1,2015-01-14T04:00:00Z,30.3836,-88.4364,0.36,20.2,1111122 
NERRS,ioos:station:NOAA.NERRS:gndbcwq:1,2015-01-14T05:00:00Z,30.3836,-88.4364,0.32,20.1,1111122 
NERRS,ioos:station:NOAA.NERRS:gndbcwq:1,2015-01-14T06:00:00Z,30.3836,-88.4364,0.27,19.8,1111122 
NERRS,ioos:station:NOAA.NERRS:gndbcwq:1,2015-01-14T07:00:00Z,30.3836,-88.4364,0.28,20.2,1111122 
NERRS,ioos:station:NOAA.NERRS:gndbcwq:1,2015-01-14T08:00:00Z,30.3836,-88.4364,0.24,20.4,1111122 
NERRS,ioos:station:NOAA.NERRS:gndbcwq:1,2015-01-14T09:00:00Z,30.3836,-88.4364,0.21,20.1,1111122 
NERRS,ioos:station:NOAA.NERRS:gndbcwq:1,2015-01-14T10:00:00Z,30.3836,-88.4364,0.18,19.9,1111122 
NERRS,ioos:station:NOAA.NERRS:gndbcwq:1,2015-01-14T11:00:00Z,30.3836,-88.4364,0.2,20.2,1111122 
NERRS,ioos:station:NOAA.NERRS:gndbcwq:1,2015-01-14T12:00:00Z,30.3836,-88.4364,0.2,20.2,1111122 
NERRS,ioos:station:NOAA.NERRS:gndbcwq:1,2015-01-14T13:00:00Z,30.3836,-88.4364,0.21,20.3,1111122 
NERRS,ioos:station:NOAA.NERRS:gndbcwq:1,2015-01-14T14:00:00Z,30.3836,-88.4364,0.25,20.2,1111122 
NERRS,ioos:station:NOAA.NERRS:gndbcwq:1,2015-01-14T15:00:00Z,30.3836,-88.4364,0.28,20.4,1111122 
NERRS,ioos:station:NOAA.NERRS:gndbcwq:1,2015-01-14T16:00:00Z,30.3836,-88.4364,0.3,20.5,1111122 
NERRS,ioos:station:NOAA.NERRS:gndbcwq:1,2015-01-14T17:00:00Z,30.3836,-88.4364,0.32,20.6,1111122 
NERRS,ioos:station:NOAA.NERRS:gndbcwq:1,2015-01-14T18:00:00Z,30.3836,-88.4364,0.39,21.1,1111122 
NERRS,ioos:station:NOAA.NERRS:gndbcwq:1,2015-01-14T19:00:00Z,30.3836,-88.4364,0.45,21.8,1111122 
NERRS,ioos:station:NOAA.NERRS:gndbcwq:1,2015-01-14T20:00:00Z,30.3836,-88.4364,0.51,22.2,1111122 
NERRS,ioos:station:NOAA.NERRS:gndbcwq:1,2015-01-14T21:00:00Z,30.3836,-88.4364,0.59,22.3,1111122 
NERRS,ioos:station:NOAA.NERRS:gndbcwq:1,2015-01-14T22:00:00Z,30.3836,-88.4364,0.6,22.6,1111122 
NERRS,ioos:station:NOAA.NERRS:gndbcwq:1,2015-01-14T23:00:00Z,30.3836,-88.4364,0.6,22.6,1111122 
NERRS,ioos:station:NOAA.NERRS:gndbcwq:1,2015-01-15T00:00:00Z,30.3836,-88.4364,0.61,22.5,1111122 
NERRS,ioos:station:NOAA.NERRS:gndbcwq:1,2015-01-15T01:00:00Z,30.3836,-88.4364,0.59,22.9,1111122 
NERRS,ioos:station:NOAA.NERRS:gndbcwq:1,2015-01-15T02:00:00Z,30.3836,-88.4364,0.57,22.6,1111122 
NERRS,ioos:station:NOAA.NERRS:gndbcwq:1,2015-01-15T03:00:00Z,30.3836,-88.4364,0.54,22.5,1111122 
NERRS,ioos:station:NOAA.NERRS:gndbcwq:1,2015-01-15T04:00:00Z,30.3836,-88.4364,0.5,22.2,1111122 
NERRS,ioos:station:NOAA.NERRS:gndbcwq:1,2015-01-15T05:00:00Z,30.3836,-88.4364,0.46,21.5,1111122 
NERRS,ioos:station:NOAA.NERRS:gndbcwq:1,2015-01-15T06:00:00Z,30.3836,-88.4364,0.4,21.3,1111122 
NERRS,ioos:station:NOAA.NERRS:gndbcwq:1,2015-01-15T07:00:00Z,30.3836,-88.4364,0.34,20.9,1111122 
NERRS,ioos:station:NOAA.NERRS:gndbcwq:1,2015-01-15T08:00:00Z,30.3836,-88.4364,0.28,20.6,1111122 
NERRS,ioos:station:NOAA.NERRS:gndbcwq:1,2015-01-15T09:00:00Z,30.3836,-88.4364,0.25,20.2,1111122 